SCP
0 0 0 -0 -0 -0 0 -0 -0 0 0 -0 -0 0 0 0 0 0 0 0 0 0 0 0 0 0 0 0 0 0 0 0 0 0 0 0 0 0 0 0 0 0 0 0
0 0 0 0 0 0 0 0 -0 0 0 0 -0 -0 0 0 0 0 0 0 0 0 0 0 0 0 0 0 0 0 0 0 0 0 0 0 0 0 0 0 0 0 0 0
0 0 0 0 0 0 0 0 0 0 0 0 0 0 0 0 0 0 0 0 0 0 0 0 0 0 0 0 0 0 0 0 0 0 0 0 0 0 0 0 0 0 0 0
0 0 0 0 0 0 0 0 0 0 0 0 0 0 0 0 0 0 0 0 0 0 0 0 0 0 0 0 0 0 0 0 0 0 0 0 0 0 0 0 0 0 0 0
0 0 0 0 0 -0 0 0 0 0 0 0 0 0 0 0 0 0 0 0 0 0 0 0 0 0 0 0 0 0 0 0 0 0 0 0 0 0 0 0 0 0 0 0
0 0 0 0 0 0 0 0 0 0 0 0 0 0 0 0 0 0 0 0 0 0 0 0 0 0 0 0 0 0 0 0 0 0 0 0 0 0 0 0 0 0 0 0
0 0 0 0 0 0 0 0 0 0 0 0 0 0 0 0 0 0 0 0 0 0 0 0 0 0 0 0 0 0 0 0 0 0 0 0 0 0 0 0 0 0 0 0
0 0 0 0 0 0 0 0 0 0 0 0 0 0 0 0 0 0 0 0 0 0 0 0 0 0 0 0 0 0 0 0 0 0 0 0 0 0 0 0 0 0 0 0
0 0 0 0 0 0 0 0 0 0 0 0 0 0 0 0 0 0 0 0 0 0 0 0 0 0 0 0 0 0 -0 -0 0 0 0 0 0 0 0 0 0 0 0 0
0 0 0 0 0 0 0 0 0 0 0 0 0 0 0 0 0 0 0 0 0 0 0 0 0 0 0 0 0 0 0 0 0 0 0 0 0 0 0 0 0 0 0 0
0 0 0 0 0 0 0 0 0 0 0 0 0 0 0 0 0 0 0 0 0 0 0 0 0 0 0 0 0 0 0 0 0 0 0 0 0 0 0 0 0 0 0 0
0 0 0 0 0 0 0 0 0 0 0 0 -0 -0 -0 -0 0 0 0 0 0 0 0 0 0 0 0 0 0 0 0 0 0 0 0 0 0 0 0 0 0 0 0 0
0 0 0 0 0 0 0 0 0 0 0 0 0 0 0 0 0 0 0 0 0 0 0 0 0 0 0 0 0 0 0 0 0 0 0 0 0 -0 0 0 0 0 0 0
0 0 0 0 0 0 0 0 0 0 0 0 0 0 0 0 0 0 0 0 0 0 0 0 0 0 0 0 0 0 0 0 0 0 0 0 0 0 0 0 0 0 0 0
0 0 0 0 0 0 0 0 0 0 0 0 0 0 0 0 0 0 0 0 0 0 0 0 0 0 0 0 0 -0 0 0 0 0 0 0 0 0 0 0 -0 -0 -0 -0
0 0 0 0 0 0 0 0 0 0 0 0 0 0 0 0 0 0 0 0 0 0 0 0 -0 -0 0 0 0 0 -0 0 0 0 0 0 -0 -0 -0 -0 -0 0 0 -0
0 0 0 0 0 0 0 0 0 0 0 0 0 0 0 0 0 0 0 0 0 0 0 -0 0 0 0 0 -0 0 0 0 0 0 -0 -0 -0 -0 -0 0 0 -0 0 0
0 0 0 0 0 0 0 0 0 0 0 0 0 0 0 0 0 0 0 0 0 0 -0 0 0 0 0 0 0 0 0 0 0 -0 -0 0 0 0 0 0 0 0 -0 0
0 -0 0 0 0 0 0 0 0 0 0 0 0 0 0 0 0 0 0 0 0 0 0 0 0 -0 -0 -0 0 0 0 -0 -0 -0 -0 -0 0 0 0 0 0 0 0 0
0 0 0 0 0 0 0 0 0 0 0 0 0 0 0 0 0 0 0 0 0 -0 -0 -0 -0 -0 -0 0 0 0 0 0 -0 -0 0 -0 -0 0 -0 0 0 0 0 0
0 0 0 0 0 0 0 0 0 0 0 0 -0 0 0 0 -0 0 0 0 0 0 -0 0 -0 -0 0 0 -0 0 0 0 -0 -0 0 -0 0 -0 0 0 0 0 0 0
0 0 0 0 0 0 0 0 0 0 0 0 0 0 0 0 -0 0 0 0 -0 0 -0 -0 -0 0 0 0 0 0 0 0 -0 -0 0 0 0 0 0 0 0 0 0 0
0 0 0 0 0 0 0 0 0 0 0 0 0 0 0 0 -0 -0 0 0 0 -0 -0 0 0 0 -0 -0 -0 0 0 0 -0 -0 -0 0 0 0 0 0 0 0 0 0
0 0 0 0 0 0 -0 -0 0 0 0 0 0 0 -0 0 -0 -0 0 -0 -0 0 0 0 0 -0 -0 -0 0 -0 0 0 0 -0 -0 0 0 0 0 0 0 0 -0 -0
0 0 0 0 0 -0 0 0 0 0 0 0 0 0 -0 0 0 -0 0 0 0 0 0 0 0 -0 -0 -0 -0 -0 0 0 0 -0 -0 -0 -0 0 0 0 0 0 -0 0
0 0 0 -0 0 0 0 0 0 0 0 0 0 -0 -0 -0 0 -0 -0 -0 0 0 -0 -0 -0 -0 -0 -0 -0 -0 -0 0 0 -0 -0 -0 -0 0 0 0 0 -0 0 0
0 0 0 0 0 0 0 0 0 0 0 0 -0 -0 -0 -0 0 0 0 -0 0 -0 0 -0 -0 -0 -0 -0 -0 -0 -0 -0 0 -0 -0 -0 -0 0 0 0 0 0 0 -0
Wind_Speed_500mb
43 45 44 49 55 60 36 12 8 4 2 15 18 8 10 9 13 17 15 14 20 22 25 30 20 13 16 16 22 9 10 11 19 35 37 31 35 40 35 19 28 24 26 29
37 36 40 40 44 51 57 20 31 4 3 7 2 17 11 7 9 18 18 17 16 18 25 21 19 18 25 4 5 8 6 6 15 22 29 43 28 25 28 24 34 40 26 19
32 33 32 36 35 39 41 15 8 7 5 5 16 23 18 8 15 13 15 20 22 18 25 18 13 25 3 7 11 14 4 15 27 25 32 19 17 22 32 17 10 19 33 39
31 30 30 32 30 29 33 12 8 7 9 14 14 14 23 17 14 15 21 12 17 13 11 24 28 15 25 10 12 3 5 17 30 39 45 47 49 40 37 37 31 23 28 34
33 25 30 25 25 20 18 14 12 23 29 8 14 5 13 12 13 12 20 15 19 20 17 21 32 31 19 16 6 10 7 11 25 35 35 42 46 43 40 42 43 45 43 47
37 32 29 24 19 20 15 23 18 18 19 11 15 7 13 15 13 13 8 13 18 22 18 19 28 36 39 27 25 14 3 6 9 19 30 29 29 35 36 36 39 30 34 33
39 34 30 23 15 11 19 22 21 26 18 18 9 10 16 19 15 16 25 26 21 19 30 35 41 51 47 42 34 32 10 11 6 10 20 17 13 16 14 12 12 12 14 18
26 26 23 20 15 15 16 8 15 13 13 24 22 11 11 18 19 11 20 17 8 16 25 17 18 20 23 38 37 30 22 14 8 7 14 26 28 9 7 10 13 15 14 16
23 21 23 20 15 15 10 4 9 18 14 5 24 19 12 13 15 20 4 5 14 15 11 9 11 8 5 4 4 20 33 27 15 6 7 7 6 13 11 15 14 17 21 15
24 23 18 20 17 16 10 9 11 8 18 16 12 12 8 13 11 12 18 12 8 8 4 7 12 14 8 6 8 5 7 11 24 18 13 15 5 5 5 13 6 18 23 29
26 23 19 20 19 17 13 7 11 6 13 31 20 14 14 12 15 7 13 16 5 7 6 6 5 6 7 10 4 7 11 6 9 12 10 14 21 9 6 4 9 18 22 29
28 26 25 22 20 16 17 9 16 17 14 26 38 36 35 30 26 10 6 6 4 7 6 6 9 7 8 10 7 6 5 5 3 4 7 1 10 25 6 10 16 22 26 33
27 25 19 21 19 19 19 18 11 9 14 35 21 8 12 6 18 25 10 8 5 3 7 8 6 10 12 6 6 8 5 17 8 16 4 4 5 24 13 29 33 35 35 40
26 27 23 20 22 20 21 19 18 11 5 7 4 4 8 13 15 15 18 16 11 4 6 4 7 9 6 10 18 20 18 20 21 26 11 11 16 18 31 29 31 38 46 47
24 26 26 21 20 20 23 25 21 14 6 6 24 31 8 5 26 13 26 22 16 8 3 6 7 20 10 17 17 18 6 8 7 8 17 14 29 39 35 40 43 46 44 50
20 21 25 22 19 28 20 8 15 18 15 7 7 7 15 12 14 12 18 22 19 8 6 11 12 20 8 6 11 12 5 13 12 14 27 29 31 35 40 43 43 42 48 47
21 19 17 23 25 32 14 5 9 6 4 4 8 7 13 16 17 9 16 19 8 11 7 13 19 23 12 6 18 10 13 17 22 16 22 27 31 38 39 40 44 43 47 48
24 16 22 20 31 35 14 9 8 10 3 6 5 8 9 15 10 13 13 16 18 16 11 10 16 19 10 7 6 10 17 18 21 26 28 30 32 33 39 39 42 47 50 53
22 10 14 28 21 10 9 12 12 13 8 5 7 4 4 6 3 3 8 4 5 5 6 7 6 7 9 9 8 17 17 18 25 28 28 27 30 34 36 42 46 49 53 56
15 23 9 10 12 11 12 7 6 5 6 8 8 18 6 7 4 1 2 7 6 5 10 8 7 9 6 8 13 9 18 18 23 28 31 32 29 35 40 43 45 48 51 46
20 11 6 13 22 13 7 5 8 11 8 12 15 20 9 2 5 3 8 3 5 5 7 7 7 3 10 6 10 14 16 19 20 23 26 25 29 34 38 43 46 47 39 63
10 12 21 19 5 5 6 7 7 8 6 15 12 10 7 5 3 4 9 6 7 8 14 7 3 1 11 9 13 15 17 19 20 22 24 27 29 34 36 39 42 39 50 62
17 5 9 8 9 7 10 12 9 9 12 14 16 10 5 4 8 11 8 8 4 5 6 2 5 10 8 13 13 16 17 18 20 23 25 28 31 33 39 41 42 39 54 60
4 5 5 8 9 11 13 11 2 11 18 17 17 11 6 8 8 6 8 6 9 7 5 6 8 11 13 12 14 15 17 19 22 24 26 30 33 37 39 43 43 44 51 69
5 6 8 14 20 21 13 9 8 24 26 19 14 7 6 3 6 5 7 7 8 3 6 8 16 15 13 14 14 15 16 18 21 23 27 29 33 38 40 44 43 45 45 67
5 10 10 22 19 21 19 9 16 21 22 17 7 5 4 8 6 7 8 7 6 6 7 22 18 14 13 14 14 14 14 16 19 22 25 28 33 37 39 43 44 48 51 58
8 12 26 30 26 9 21 5 16 25 16 5 4 4 2 3 5 6 2 6 9 17 23 23 19 16 14 14 13 14 14 15 17 20 25 27 30 33 39 46 46 48 64 50
Wind_Direction_500mb
324 327 335 338 337 343 351 308 277 61 240 249 251 240 249 19 332 328 287 288 299 303 330 318 288 289 211 345 329 271 20 312 278 278 279 262 250 265 256 245 253 255 264 271
317 323 339 343 344 349 347 308 295 94 154 260 136 270 348 155 325 348 330 312 324 323 314 316 304 325 125 33 221 349 30 238 287 277 249 234 251 305 286 265 244 243 243 246
312 318 333 340 344 340 339 300 296 160 237 333 340 7 313 329 95 331 353 327 315 324 309 280 280 291 16 321 121 72 352 265 258 263 282 295 249 283 295 276 250 267 261 281
314 314 322 333 337 334 328 260 28 358 322 43 337 327 311 301 333 14 337 312 61 359 309 316 285 360 314 248 157 258 258 267 274 272 273 273 277 268 251 249 253 249 269 272
300 313 318 319 332 327 299 322 346 342 287 309 295 222 311 348 350 331 305 294 337 323 292 286 299 301 298 297 203 261 166 276 284 280 269 259 261 263 266 265 259 259 268 272
291 300 307 310 324 336 308 356 312 279 294 277 263 33 347 315 316 319 37 338 308 293 306 315 284 280 285 258 277 287 215 290 295 270 264 266 259 253 256 259 256 254 263 276
279 285 291 288 308 306 301 328 318 301 279 286 301 356 327 312 318 315 315 313 298 297 311 298 281 267 257 249 251 242 212 227 249 273 290 259 281 316 259 285 299 317 276 310
270 273 278 273 283 281 275 321 320 314 305 304 311 8 321 325 290 266 285 319 333 317 300 297 285 258 232 235 229 219 198 230 267 261 274 288 280 205 33 37 310 22 31 34
272 269 267 265 264 275 267 283 286 299 285 9 333 323 312 322 314 272 77 312 305 283 289 271 274 283 270 144 295 248 196 216 235 289 280 282 92 68 6 324 261 31 1 350
262 264 276 243 250 262 257 247 302 281 277 278 354 349 316 310 322 294 321 343 310 301 240 266 277 274 318 277 165 180 196 212 220 237 243 260 127 283 300 243 22 340 322 325
257 258 246 245 247 266 241 242 249 264 270 284 297 300 269 270 263 266 338 293 33 307 258 286 342 296 329 278 194 196 194 221 215 226 238 248 2 304 335 7 314 307 323 326
246 245 250 238 250 231 232 250 268 244 261 271 292 281 261 256 244 242 226 323 295 308 290 11 303 313 298 327 295 11 276 251 305 265 307 313 306 296 292 304 295 329 323 322
234 235 230 234 250 239 226 213 279 301 300 308 243 252 222 229 232 228 228 245 230 284 6 342 303 279 319 292 290 282 283 215 227 232 161 276 199 285 349 334 351 347 338 331
230 225 218 231 248 215 225 219 240 277 285 306 309 232 267 237 198 221 222 236 207 286 5 287 267 274 307 294 304 298 291 266 307 291 328 309 96 337 355 337 334 331 326 322
229 224 206 216 218 218 222 222 243 262 229 277 293 300 241 242 221 222 213 226 211 198 211 235 251 272 312 277 282 281 350 294 341 322 355 335 331 344 339 337 333 327 329 325
215 208 209 214 219 222 192 236 265 241 222 276 304 326 250 174 176 181 176 193 189 173 214 260 249 263 255 280 287 76 316 52 20 347 360 346 330 326 329 328 330 337 328 320
189 192 205 213 225 197 178 192 163 169 215 230 274 271 180 191 195 206 191 176 194 204 232 245 248 265 223 264 275 11 341 8 18 13 349 328 326 331 332 341 337 328 325 328
190 200 199 210 194 193 201 226 204 223 212 251 288 276 221 205 191 187 190 194 196 210 244 258 263 287 226 259 40 15 28 2 349 339 336 332 335 338 343 337 327 333 334 333
192 213 179 175 164 153 219 242 207 195 202 265 203 268 291 212 262 124 156 285 230 223 234 239 264 252 225 272 14 40 12 351 348 344 341 346 350 341 338 337 337 339 338 333
206 167 146 154 172 182 156 129 153 196 235 234 254 232 256 309 15 180 87 212 220 234 216 178 228 257 120 88 45 12 13 0 353 347 348 346 336 345 342 339 347 341 336 335
167 151 115 134 141 143 169 191 234 177 222 213 238 230 229 302 291 75 239 219 257 263 178 215 218 171 108 79 29 24 10 359 355 354 349 351 355 342 345 349 345 342 345 344
159 161 133 140 156 189 227 206 193 219 246 189 205 178 158 145 233 239 237 242 214 254 168 218 203 214 86 53 40 23 12 9 5 5 2 4 356 357 359 348 353 2 348 351
170 122 136 185 181 207 225 198 195 205 200 169 161 155 147 174 208 245 243 244 246 217 229 193 92 125 76 48 27 28 23 20 21 20 14 8 6 7 5 2 3 5 358 359
152 145 188 225 186 234 220 255 204 138 126 154 165 123 169 202 207 258 253 254 208 234 221 81 147 109 81 60 38 38 33 33 30 24 20 18 17 15 14 13 13 8 2 4
194 213 240 218 244 263 273 196 133 128 139 134 123 108 179 256 258 248 291 244 247 29 67 128 95 82 67 58 53 48 44 39 35 30 29 26 27 24 21 17 14 13 4 4
234 231 267 257 260 263 245 196 180 133 122 114 96 135 215 229 239 216 240 284 29 87 140 136 123 98 80 75 67 60 56 48 43 39 33 30 28 25 23 18 15 16 11 3
228 249 242 260 281 343 333 242 236 159 151 124 177 223 241 252 239 220 308 337 112 151 107 92 98 105 102 92 79 69 67 61 56 47 39 33 28 25 22 20 19 15 17 14
Wind_Speed_850mb
43 45 44 49 55 60 36 12 8 4 2 15 18 8 10 9 13 17 15 14 20 22 25 30 20 13 16 16 22 9 10 11 19 35 37 31 35 40 35 19 28 24 26 29
37 36 40 40 44 51 57 20 31 4 3 7 2 17 11 7 9 18 18 17 16 18 25 21 19 18 25 4 5 8 6 6 15 22 29 43 28 25 28 24 34 40 26 19
32 33 32 36 35 39 41 15 8 7 5 5 16 23 18 8 15 13 15 20 22 18 25 18 13 25 3 7 11 14 4 15 27 25 32 19 17 22 32 17 10 19 33 39
31 30 30 32 30 29 33 12 8 7 9 14 14 14 23 17 14 15 21 12 17 13 11 24 28 15 25 10 12 3 5 17 30 39 45 47 49 40 37 37 31 23 28 34
33 25 30 25 25 20 18 14 12 23 29 8 14 5 13 12 13 12 20 15 19 20 17 21 32 31 19 16 6 10 7 11 25 35 35 42 46 43 40 42 43 45 43 47
37 32 29 24 19 20 15 23 18 18 19 11 15 7 13 15 13 13 8 13 18 22 18 19 28 36 39 27 25 14 3 6 9 19 30 29 29 35 36 36 39 30 34 33
39 34 30 23 15 11 19 22 21 26 18 18 9 10 16 19 15 16 25 26 21 19 30 35 41 51 47 42 34 32 10 11 6 10 20 17 13 16 14 12 12 12 14 18
26 26 23 20 15 15 16 8 15 13 13 24 22 11 11 18 19 11 20 17 8 16 25 17 18 20 23 38 37 30 22 14 8 7 14 26 28 9 7 10 13 15 14 16
23 21 23 20 15 15 10 4 9 18 14 5 24 19 12 13 15 20 4 5 14 15 11 9 11 8 5 4 4 20 33 27 15 6 7 7 6 13 11 15 14 17 21 15
24 23 18 20 17 16 10 9 11 8 18 16 12 12 8 13 11 12 18 12 8 8 4 7 12 14 8 6 8 5 7 11 24 18 13 15 5 5 5 13 6 18 23 29
26 23 19 20 19 17 13 7 11 6 13 31 20 14 14 12 15 7 13 16 5 7 6 6 5 6 7 10 4 7 11 6 9 12 10 14 21 9 6 4 9 18 22 29
28 26 25 22 20 16 17 9 16 17 14 26 38 36 35 30 26 10 6 6 4 7 6 6 9 7 8 10 7 6 5 5 3 4 7 1 10 25 6 10 16 22 26 33
27 25 19 21 19 19 19 18 11 9 14 35 21 8 12 6 18 25 10 8 5 3 7 8 6 10 12 6 6 8 5 17 8 16 4 4 5 24 13 29 33 35 35 40
26 27 23 20 22 20 21 19 18 11 5 7 4 4 8 13 15 15 18 16 11 4 6 4 7 9 6 10 18 20 18 20 21 26 11 11 16 18 31 29 31 38 46 47
24 26 26 21 20 20 23 25 21 14 6 6 24 31 8 5 26 13 26 22 16 8 3 6 7 20 10 17 17 18 6 8 7 8 17 14 29 39 35 40 43 46 44 50
20 21 25 22 19 28 20 8 15 18 15 7 7 7 15 12 14 12 18 22 19 8 6 11 12 20 8 6 11 12 5 13 12 14 27 29 31 35 40 43 43 42 48 47
21 19 17 23 25 32 14 5 9 6 4 4 8 7 13 16 17 9 16 19 8 11 7 13 19 23 12 6 18 10 13 17 22 16 22 27 31 38 39 40 44 43 47 48
24 16 22 20 31 35 14 9 8 10 3 6 5 8 9 15 10 13 13 16 18 16 11 10 16 19 10 7 6 10 17 18 21 26 28 30 32 33 39 39 42 47 50 53
22 10 14 28 21 10 9 12 12 13 8 5 7 4 4 6 3 3 8 4 5 5 6 7 6 7 9 9 8 17 17 18 25 28 28 27 30 34 36 42 46 49 53 56
15 23 9 10 12 11 12 7 6 5 6 8 8 18 6 7 4 1 2 7 6 5 10 8 7 9 6 8 13 9 18 18 23 28 31 32 29 35 40 43 45 48 51 46
20 11 6 13 22 13 7 5 8 11 8 12 15 20 9 2 5 3 8 3 5 5 7 7 7 3 10 6 10 14 16 19 20 23 26 25 29 34 38 43 46 47 39 63
10 12 21 19 5 5 6 7 7 8 6 15 12 10 7 5 3 4 9 6 7 8 14 7 3 1 11 9 13 15 17 19 20 22 24 27 29 34 36 39 42 39 50 62
17 5 9 8 9 7 10 12 9 9 12 14 16 10 5 4 8 11 8 8 4 5 6 2 5 10 8 13 13 16 17 18 20 23 25 28 31 33 39 41 42 39 54 60
4 5 5 8 9 11 13 11 2 11 18 17 17 11 6 8 8 6 8 6 9 7 5 6 8 11 13 12 14 15 17 19 22 24 26 30 33 37 39 43 43 44 51 69
5 6 8 14 20 21 13 9 8 24 26 19 14 7 6 3 6 5 7 7 8 3 6 8 16 15 13 14 14 15 16 18 21 23 27 29 33 38 40 44 43 45 45 67
5 10 10 22 19 21 19 9 16 21 22 17 7 5 4 8 6 7 8 7 6 6 7 22 18 14 13 14 14 14 14 16 19 22 25 28 33 37 39 43 44 48 51 58
8 12 26 30 26 9 21 5 16 25 16 5 4 4 2 3 5 6 2 6 9 17 23 23 19 16 14 14 13 14 14 15 17 20 25 27 30 33 39 46 46 48 64 50
Wind_Direction_850mb
324 327 335 338 337 343 351 308 277 61 240 249 251 240 249 19 332 328 287 288 299 303 330 318 288 289 211 345 329 271 20 312 278 278 279 262 250 265 256 245 253 255 264 271
317 323 339 343 344 349 347 308 295 94 154 260 136 270 348 155 325 348 330 312 324 323 314 316 304 325 125 33 221 349 30 238 287 277 249 234 251 305 286 265 244 243 243 246
312 318 333 340 344 340 339 300 296 160 237 333 340 7 313 329 95 331 353 327 315 324 309 280 280 291 16 321 121 72 352 265 258 263 282 295 249 283 295 276 250 267 261 281
314 314 322 333 337 334 328 260 28 358 322 43 337 327 311 301 333 14 337 312 61 359 309 316 285 360 314 248 157 258 258 267 274 272 273 273 277 268 251 249 253 249 269 272
300 313 318 319 332 327 299 322 346 342 287 309 295 222 311 348 350 331 305 294 337 323 292 286 299 301 298 297 203 261 166 276 284 280 269 259 261 263 266 265 259 259 268 272
291 300 307 310 324 336 308 356 312 279 294 277 263 33 347 315 316 319 37 338 308 293 306 315 284 280 285 258 277 287 215 290 295 270 264 266 259 253 256 259 256 254 263 276
279 285 291 288 308 306 301 328 318 301 279 286 301 356 327 312 318 315 315 313 298 297 311 298 281 267 257 249 251 242 212 227 249 273 290 259 281 316 259 285 299 317 276 310
270 273 278 273 283 281 275 321 320 314 305 304 311 8 321 325 290 266 285 319 333 317 300 297 285 258 232 235 229 219 198 230 267 261 274 288 280 205 33 37 310 22 31 34
272 269 267 265 264 275 267 283 286 299 285 9 333 323 312 322 314 272 77 312 305 283 289 271 274 283 270 144 295 248 196 216 235 289 280 282 92 68 6 324 261 31 1 350
262 264 276 243 250 262 257 247 302 281 277 278 354 349 316 310 322 294 321 343 310 301 240 266 277 274 318 277 165 180 196 212 220 237 243 260 127 283 300 243 22 340 322 325
257 258 246 245 247 266 241 242 249 264 270 284 297 300 269 270 263 266 338 293 33 307 258 286 342 296 329 278 194 196 194 221 215 226 238 248 2 304 335 7 314 307 323 326
246 245 250 238 250 231 232 250 268 244 261 271 292 281 261 256 244 242 226 323 295 308 290 11 303 313 298 327 295 11 276 251 305 265 307 313 306 296 292 304 295 329 323 322
234 235 230 234 250 239 226 213 279 301 300 308 243 252 222 229 232 228 228 245 230 284 6 342 303 279 319 292 290 282 283 215 227 232 161 276 199 285 349 334 351 347 338 331
230 225 218 231 248 215 225 219 240 277 285 306 309 232 267 237 198 221 222 236 207 286 5 287 267 274 307 294 304 298 291 266 307 291 328 309 96 337 355 337 334 331 326 322
229 224 206 216 218 218 222 222 243 262 229 277 293 300 241 242 221 222 213 226 211 198 211 235 251 272 312 277 282 281 350 294 341 322 355 335 331 344 339 337 333 327 329 325
215 208 209 214 219 222 192 236 265 241 222 276 304 326 250 174 176 181 176 193 189 173 214 260 249 263 255 280 287 76 316 52 20 347 360 346 330 326 329 328 330 337 328 320
189 192 205 213 225 197 178 192 163 169 215 230 274 271 180 191 195 206 191 176 194 204 232 245 248 265 223 264 275 11 341 8 18 13 349 328 326 331 332 341 337 328 325 328
190 200 199 210 194 193 201 226 204 223 212 251 288 276 221 205 191 187 190 194 196 210 244 258 263 287 226 259 40 15 28 2 349 339 336 332 335 338 343 337 327 333 334 333
192 213 179 175 164 153 219 242 207 195 202 265 203 268 291 212 262 124 156 285 230 223 234 239 264 252 225 272 14 40 12 351 348 344 341 346 350 341 338 337 337 339 338 333
206 167 146 154 172 182 156 129 153 196 235 234 254 232 256 309 15 180 87 212 220 234 216 178 228 257 120 88 45 12 13 0 353 347 348 346 336 345 342 339 347 341 336 335
167 151 115 134 141 143 169 191 234 177 222 213 238 230 229 302 291 75 239 219 257 263 178 215 218 171 108 79 29 24 10 359 355 354 349 351 355 342 345 349 345 342 345 344
159 161 133 140 156 189 227 206 193 219 246 189 205 178 158 145 233 239 237 242 214 254 168 218 203 214 86 53 40 23 12 9 5 5 2 4 356 357 359 348 353 2 348 351
170 122 136 185 181 207 225 198 195 205 200 169 161 155 147 174 208 245 243 244 246 217 229 193 92 125 76 48 27 28 23 20 21 20 14 8 6 7 5 2 3 5 358 359
152 145 188 225 186 234 220 255 204 138 126 154 165 123 169 202 207 258 253 254 208 234 221 81 147 109 81 60 38 38 33 33 30 24 20 18 17 15 14 13 13 8 2 4
194 213 240 218 244 263 273 196 133 128 139 134 123 108 179 256 258 248 291 244 247 29 67 128 95 82 67 58 53 48 44 39 35 30 29 26 27 24 21 17 14 13 4 4
234 231 267 257 260 263 245 196 180 133 122 114 96 135 215 229 239 216 240 284 29 87 140 136 123 98 80 75 67 60 56 48 43 39 33 30 28 25 23 18 15 16 11 3
228 249 242 260 281 343 333 242 236 159 151 124 177 223 241 252 239 220 308 337 112 151 107 92 98 105 102 92 79 69 67 61 56 47 39 33 28 25 22 20 19 15 17 14